This demonstration page uses our WeatherBlox Daily Observations layout. Learn more.

Left ArrowRight Arrow

39.92423, -83.80882

Hourly Observations for January 26, 2017

Temp ( °F °C ) Dew Point ( °F °C ) Humidity (%) Winds ( mph kmh ) Pressure ( in mb ) Visibility ( mi km ) Precip ( " mm )
12:05 am 00:05 Mostly Cloudy 37 3 32 0 81 81 W 15 24 29.65 1004 10 16.0934 0 0
12:42 am 00:42 Mostly Cloudy 37 3 28 -2 70 70 W 15 24 29.65 1004 10 16.0934 0 0
12:56 am 00:56 Partly Cloudy 36 2.2 29 -1.7 76 76 W 13 20 29.65 1004 10 16.0934 0 0
1:56 am 01:56 Cloudy 37 2.8 28 -2.2 70 70 WSW 18 30 29.62 1003 10 16.0934 0 0
2:56 am 02:56 Cloudy 36 2.2 28 -2.2 73 73 WSW 16 26 29.63 1003 10 16.0934 0 0
3:38 am 03:38 Cloudy 36 2 28 -2 75 75 WSW 16 26 29.65 1004 10 16.0934 0 0
3:56 am 03:56 Cloudy 36 2.2 28 -2.2 73 73 W 20 31 29.62 1003 10 16.0934 0 0
4:20 am 04:20 Cloudy 36 2 28 -2 75 75 W 16 26 29.65 1004 10 16.0934 0 0
4:35 am 04:35 Cloudy 36 2 28 -2 75 75 W 22 35 29.65 1004 10 16.0934 0 0
4:56 am 04:56 Cloudy 36 2.2 28 -2.2 73 73 W 18 30 29.63 1003 10 16.0934 0 0
5:56 am 05:56 Cloudy 36 2.2 28 -2.2 73 73 WSW 20 31 29.63 1003 10 16.0934 0 0
6:56 am 06:56 Cloudy 35 1.7 29 -1.7 78 78 WSW 24 39 29.65 1004 10 16.0934 0 0
7:49 am 07:49 Cloudy with Light Snow 34 1 30 -1 87 87 W 18 30 29.68 1005 4 6.43736 0 0.0254
7:56 am 07:56 Cloudy with Light Snow 34 1.1 31 -0.6 89 89 WSW 14 22 29.68 1005 4 6.43736 0 0.0254
8:56 am 08:56 Windy with Snow Likely 34 1.1 32 0 92 92 WSW 20 31 29.7 1006 4 6.43736 0 0.0254
9:35 am 09:35 Windy with Snow Likely 34 1 32 0 93 93 W 21 33 29.74 1007 4 6.43736 0 0.0254
9:56 am 09:56 Windy with Snow Likely 34 1.1 32 0 92 92 W 20 31 29.75 1007 4 6.43736 0 0.0254
10:56 am 10:56 Cloudy with Light Rain 35 1.7 32 0 89 89 W 20 31 29.78 1008 10 16.0934 0 0.0254
11:33 am 11:33 Cloudy with Light Rain 36 2 32 0 87 87 W 25 41 29.8 1009 10 16.0934 0 0.0254
11:56 am 11:56 Cloudy with Light Rain 36 2.2 31 -0.6 82 82 W 22 35 29.8 1009 10 16.0934 0 0.0254
12:56 pm 12:56 Cloudy with Light Rain 37 2.8 31 -0.6 79 79 W 17 28 29.8 1009 10 16.0934 0 0.0254
1:56 pm 13:56 Cloudy 36 2.2 30 -1.1 79 79 W 20 31 29.82 1010 10 16.0934 0 0.0254
2:03 pm 14:03 Cloudy 36 2 30 -1 81 81 W 18 30 29.83 1010 10 16.0934 0 0
2:56 pm 14:56 Cloudy 35 1.7 29 -1.7 78 78 W 20 31 29.85 1011 10 16.0934 0 0.0254
3:56 pm 15:56 Cloudy with Light Rain 34 1.1 28 -2.2 79 79 W 21 33 29.88 1012 10 16.0934 0 0.0254
4:56 pm 16:56 Windy with Snow Likely 32 0 28 -2.2 85 85 W 21 33 29.91 1013 9 14.48406 0 0.0254
5:56 pm 17:56 Windy with Snow Likely 32 0 28 -2.2 85 85 W 21 33 29.93 1013 9 14.48406 0 0.0254
6:56 pm 18:56 Windy with Snow Likely 31 -0.6 27 -2.8 85 85 W 21 33 29.95 1014 9 14.48406 0 0.0254
7:56 pm 19:56 Cloudy with Light Snow 31 -0.6 26 -3.3 82 82 W 17 28 29.96 1015 9 14.48406 0 0.0254
8:56 pm 20:56 Cloudy with Light Snow 31 -0.6 25 -3.9 79 79 W 15 24 29.97 1015 9 14.48406 0 0.0254
9:14 pm 21:14 Cloudy with Light Snow 30 -1 25 -4 80 80 W 14 22 30 1016 9 14.48406 0 0.0254
9:56 pm 21:56 Cloudy with Light Snow 31 -0.6 26 -3.3 82 82 WSW 14 22 29.97 1015 9 14.48406 0 0.0254
10:56 pm 22:56 Cloudy with Light Snow 31 -0.6 25 -3.9 79 79 WSW 16 26 29.96 1015 9 14.48406 0 0.0254
11:56 pm 23:56 Cloudy with Light Snow 30 -1.1 26 -3.3 85 85 WSW 15 24 29.97 1015 9 14.48406 0 0.0254

Powered by AerisWeather